Location: ???????
(60.4260°N, 46.9069°E)
Time: 18:55:06
(UTC+00:00)

NOSS 3-3 (A) - Pass Details

Date: 30 March 2020
Orbit: 834 x 1378 km, 63.4° (Epoch: 05 May)

Event Time Altitude Azimuth Distance (km) Brightness Sun altitude
Rises 00:14:20 0° 298° (WNW) 3,797 6.8 -15.2°
Reaches altitude 10° 00:16:49 10° 297° (WNW) 2,916 6.2 -14.9°
Maximum altitude 00:23:49 79° 213° (SSW) 1,209 4.4 -14.3°
Drops below altitude 10° 00:31:47 10° 128° (SE) 3,296 7.0 -13.4°
Sets 00:34:45 0° 128° (SE) 4,319 7.6 -13.1°
